Showing default

COSMOS 1897, 18575

Orbit data source: Space-Track

COSMOS 1897, 18575 is a payload satellite owned by UNKS (CIS) in GEO that was launched on Thu, 26 Nov 1987 UTC via a PROTON-K/DM-2 launch vehicle from the Tyuratam Missile And Space Complex (TTMTR). Payload-class satellites include a variety of spacecraft equipped with specific instruments for various scientific and technological missions. These include communications satellites like Starlink; space stations such as the ISS; scientific satellites like the Hubble; Earth observation satellites from companies like Planet Labs, Umbra, and HawkEye 360; GPS; miniature CubeSats for education and research; and military/defense satellites.

Not visible in the next 10 days
Identifier
18575, 1987-096A
Orbit
GEO
Country
Flag of CISCIS
Related business
Manufacturer
NPO PM
Mission
Non-operational Defense Communications
Bus & Motor
KAUR-4 AL'TAIR, Unknown motor
Mass
2,400 kg wet, ~2,200 kg dry
Launch date (UTC)
1987-11-26 (38 years ago)
Launch vehicle
PROTON-K/DM-2
Launch site
Tyuratam Missile And Space Complex (TTMTR)
Object type
Payload
Rocket body
Debris
Shape & HBR
Cyl, 2.5 m
Radar Cross Section
9.425 m², Large (>1 m²)

Expand to show TLE details & history
Last TLE update: 1 day ago

TLE from 1 day ago
0 COSMOS 1897
1 18575U 87096A   25348.57056852  .00000046  00000-0  00000-0 0  9996
2 18575  11.2797 328.0965 0005125 157.3794 221.4950  1.00306039139342
Epoch: 2025-12-14T13:41Z
TLE epoch observation values (Epoch: 2025-12-14T13:41:37.120Z)
Latitude
3.62839°
Longitude
57.67877°
Altitude
35,792.247 km
Speed
3.074 km/s
True Right ascension
23h 06m 15s
True Declination
3° 37' 29"
Sunlit
Object was in daylight at epoch
Visualization orbit readout
Latitude
Unknown
Longitude
Unknown
Altitude
Unknown
Speed
Unknown
Apparent Right ascension
Unknown
Apparent Declination
Unknown
Sunlit
N/A
Visualization observer readout
Local Sidereal Time
19:02:35
Azimuth
Unknown
Elevation
Unknown
Doppler factor
Unknown
Orbital elements
Apogee altitude
35,799.611 km
Perigee altitude
35,756.401 km
Semi-major axis
42,156.143 km
Eccentricity
0.00051
Inclination
11.2797°
RAAN
328.0965°
Arg. of periapsis
157.3794°
True anomaly
221.45611°
Mean anomaly
221.495°
Eccentric anomaly
221.47555°
Mean motion
0.25076 °/min
Orbital period
1,435.66 mins
BSTAR
0
Loading maneuver chart data...
Computing Atmospheric mass density...
Loading historical data...
Loading historical data...
Loading historical data...
Loading historical data...
Loading historical data...
Loading historical data...
Loading historical data...

Documentation

Showing up to 5 results
|